Tracking 19969 objects as of 13-Nov-2019
Live streaming from Space Station
objects crossing your sky now
Track the group of recently launched Starlink satellites

DMSP 5D-3 F16 DEB

Track DMSP 5D-3 F16 DEB now!
10-day predictions


NORAD ID: 28056
Int'l Code: 2003-048C
Perigee: 824.4 km
Apogee: 829.6 km
Inclination: 98.6 °
Period: 101.3 minutes
Semi major axis: 7198 km
RCS: 0.072 m2 (small)
Launch date: October 18, 2003
Source: United States (US)
Launch site: AIR FORCE WESTERN TEST RANGE (AFWTR)

Note: This is SATELLITE DEBRIS
aabbcc
Your satellite tracking list
Your tracking list is empty




NASA's NSSDC Master Catalog

Two Line Element Set (TLE):
1 28056U 03048C   19316.94984526  .00000338  00000-0  17401-3 0  9993
2 28056  98.6498 301.9137 0003596   0.5132 359.6049 14.21624316831294
Source of the keplerian elements: AFSPC